James M Cox Dayton International (DAY)

 

Airport Diagram
Current Weather/Forecast (VFR Conditions)
METAR KDAY 040056Z 02004KT 10SM FEW050 22/11 A3008 RMK AO2 SLP180 T02170106
TAF KDAY 032326Z 0400/0424 02005KT P6SM FEW250 FM041400 05006KT P6SM SCT050 FM041700 06009KT P6SM VCSH SCT050 FM042300 05005KT P6SM FEW250

Airport Information

All Charts
General
Chart Name View
AIRPORT DIAGRAM
TAKEOFF MINIMUMS
ALTERNATE MINIMUMS
HOT SPOT

Departures
Chart Name Download
DAYTON SEVEN
DAYTON SEVEN, CONT.1

Arrivals
Chart Name Download
DANEI THREE
KEKEE FOUR

Approaches
Chart Name Download
ILS OR LOC RWY 06L
ILS OR LOC RWY 18
ILS OR LOC RWY 24L
ILS OR LOC RWY 24R
ILS RWY 06L (CAT II - III)
RNAV (RNP) Y RWY 06L
RNAV (RNP) Y RWY 24R
RNAV (GPS) RWY 06R
RNAV (GPS) RWY 18
RNAV (GPS) RWY 24L
RNAV (GPS) RWY 36
RNAV (GPS) Z RWY 06L
RNAV (GPS) Z RWY 24R


Airport Statistics
Departures Arrivals Local
All Collected Stats since June 2016: 610 478 16
2021 Stats: 133 115 0
August Stats: 1 2 0

Inbound Traffic (Arrivals) - 0

No inbound traffic.


Outbound Traffic (Departures) - 0

No outbound traffic.


Local Traffic (Pattern) - 0

No local traffic.